TimeEST,TemperatureF,Dew PointF,Humidity,Sea Level PressureIn,VisibilityMPH,Wind Direction,Wind SpeedMPH,Gust SpeedMPH,PrecipitationIn,Events,Conditions,WindDirDegrees,DateUTC
12:15 AM,14.5,9.0,79,29.80,7.0,West,8.1,17.3,N/A,Snow,Light Snow,270,2013-02-21 05:15:00
12:35 AM,14.5,9.1,79,29.81,5.0,West,6.9,-,N/A,Snow,Light Snow,280,2013-02-21 05:35:00
12:55 AM,14.2,9.0,80,29.82,3.0,West,4.6,-,N/A,Snow,Light Snow,280,2013-02-21 05:55:00
1:15 AM,12.2,5.4,74,29.82,7.0,WNW,9.2,19.6,N/A,Snow,Light Snow,290,2013-02-21 06:15:00
1:35 AM,12.0,5.2,74,29.83,7.0,WSW,12.7,20.7,N/A,,Overcast,250,2013-02-21 06:35:00
1:55 AM,12.0,5.0,73,29.84,7.0,West,8.1,17.3,N/A,Snow,Light Snow,280,2013-02-21 06:55:00
2:15 AM,12.0,4.6,72,29.84,10.0,West,5.8,21.9,N/A,,Overcast,270,2013-02-21 07:15:00
2:35 AM,12.0,4.1,71,29.84,10.0,West,6.9,19.6,N/A,,Overcast,260,2013-02-21 07:35:00
2:55 AM,11.8,4.1,71,29.84,10.0,West,8.1,-,N/A,,Overcast,260,2013-02-21 07:55:00
3:15 AM,10.8,2.7,70,29.84,10.0,West,12.7,18.4,N/A,,Overcast,280,2013-02-21 08:15:00
3:35 AM,9.5,1.4,70,29.85,10.0,West,6.9,17.3,N/A,,Overcast,260,2013-02-21 08:35:00
3:55 AM,9.5,1.2,69,29.86,10.0,West,9.2,19.6,N/A,,Overcast,270,2013-02-21 08:55:00
4:15 AM,9.5,1.4,70,29.87,7.0,West,6.9,-,N/A,Snow,Light Snow,270,2013-02-21 09:15:00
4:35 AM,9.1,1.2,70,29.87,7.0,West,5.8,-,N/A,Snow,Light Snow,280,2013-02-21 09:35:00
4:55 AM,8.2,0.9,72,29.88,2.5,West,5.8,17.3,N/A,Snow,Light Snow,270,2013-02-21 09:55:00
5:15 AM,7.7,1.4,75,29.89,3.0,West,6.9,-,N/A,Snow,Light Snow,260,2013-02-21 10:15:00
5:35 AM,7.0,1.2,77,29.90,2.5,West,6.9,-,N/A,Snow,Light Snow,270,2013-02-21 10:35:00
5:55 AM,6.8,1.4,79,29.90,3.0,West,5.8,-,N/A,Snow,Light Snow,270,2013-02-21 10:55:00
6:15 AM,6.8,0.5,75,29.91,5.0,WSW,5.8,-,N/A,Snow,Light Snow,250,2013-02-21 11:15:00
6:35 AM,6.8,0.5,75,29.92,5.0,West,6.9,-,N/A,Snow,Light Snow,260,2013-02-21 11:35:00
6:55 AM,6.8,-0.4,72,29.93,5.0,WSW,6.9,-,N/A,Snow,Light Snow,250,2013-02-21 11:55:00
7:15 AM,6.8,-0.4,72,29.94,5.0,West,5.8,-,N/A,Snow,Light Snow,260,2013-02-21 12:15:00
7:35 AM,6.8,-0.8,71,29.95,4.0,WSW,6.9,-,N/A,Snow,Light Snow,250,2013-02-21 12:35:00
7:55 AM,6.8,-0.9,71,29.95,3.0,West,5.8,-,N/A,Snow,Light Snow,270,2013-02-21 12:55:00
8:15 AM,6.8,-0.2,73,29.97,1.5,West,8.1,-,N/A,Snow,Light Snow,270,2013-02-21 13:15:00
8:35 AM,8.1,1.4,74,29.97,1.2,West,6.9,-,N/A,Snow,Light Snow,270,2013-02-21 13:35:00
8:55 AM,8.2,2.1,76,29.98,1.0,WSW,8.1,-,N/A,Snow,Light Snow,250,2013-02-21 13:55:00
9:15 AM,9.5,3.2,76,29.99,0.8,West,8.1,-,N/A,Snow,Light Snow,260,2013-02-21 14:15:00
9:35 AM,9.5,3.0,75,29.99,0.8,West,3.5,-,N/A,Snow,Light Snow,280,2013-02-21 14:35:00
9:55 AM,9.5,2.7,74,30.00,1.2,West,8.1,-,N/A,Snow,Light Snow,280,2013-02-21 14:55:00
10:35 AM,12.0,4.1,71,30.01,1.2,West,4.6,-,N/A,Snow,Light Snow,260,2013-02-21 15:35:00
10:55 AM,12.0,3.9,70,30.02,1.2,WNW,6.9,-,N/A,Snow,Light Snow,290,2013-02-21 15:55:00
11:15 AM,12.0,3.9,70,30.02,1.5,West,8.1,-,N/A,Snow,Light Snow,280,2013-02-21 16:15:00
11:35 AM,12.7,4.6,70,30.03,1.5,West,5.8,-,N/A,Snow,Light Snow,260,2013-02-21 16:35:00
11:55 AM,14.0,5.4,69,30.03,2.0,West,5.8,-,N/A,Snow,Light Snow,270,2013-02-21 16:55:00
12:15 PM,14.5,5.5,68,30.04,2.0,WNW,8.1,-,N/A,Snow,Light Snow,290,2013-02-21 17:15:00
12:35 PM,14.5,5.7,68,30.04,2.0,West,4.6,-,N/A,Snow,Light Snow,280,2013-02-21 17:35:00
1:15 PM,14.9,6.6,70,30.05,2.0,West,8.1,-,N/A,Snow,Light Snow,270,2013-02-21 18:15:00
1:35 PM,17.1,8.1,68,30.06,2.0,West,8.1,-,N/A,Snow,Light Snow,270,2013-02-21 18:35:00
1:55 PM,17.1,7.9,67,30.07,3.0,West,4.6,-,N/A,Snow,Light Snow,260,2013-02-21 18:55:00
2:15 PM,17.1,8.1,68,30.08,1.5,West,6.9,-,N/A,Snow,Light Snow,260,2013-02-21 19:15:00
2:35 PM,15.4,7.9,72,30.09,0.8,WSW,4.6,-,N/A,Snow,Light Snow,250,2013-02-21 19:35:00
2:55 PM,16.5,9.7,74,30.10,1.0,West,3.5,-,N/A,Snow,Light Snow,260,2013-02-21 19:55:00
3:15 PM,14.9,8.2,75,30.11,4.0,Calm,Calm,-,N/A,Snow,Light Snow,0,2013-02-21 20:15:00
3:35 PM,15.3,8.6,75,30.13,4.0,Calm,Calm,-,N/A,Snow,Light Snow,0,2013-02-21 20:35:00
3:55 PM,14.9,8.8,77,30.14,2.0,Calm,Calm,-,N/A,Snow,Light Snow,0,2013-02-21 20:55:00
4:15 PM,15.3,9.3,77,30.15,4.0,Calm,Calm,-,N/A,Snow,Light Snow,0,2013-02-21 21:15:00
4:35 PM,15.4,9.9,79,30.16,2.0,Calm,Calm,-,N/A,Snow,Light Snow,0,2013-02-21 21:35:00
5:15 PM,14.9,10.4,82,30.19,1.8,East,3.5,-,N/A,Snow,Light Snow,90,2013-02-21 22:15:00
6:15 PM,15.3,11.3,84,30.22,10.0,East,5.8,-,N/A,Snow,Light Snow,100,2013-02-21 23:15:00
6:35 PM,15.3,11.3,84,30.22,7.0,East,6.9,-,N/A,Snow,Light Snow,100,2013-02-21 23:35:00
6:55 PM,15.3,11.7,86,30.23,7.0,ESE,5.8,-,N/A,,Overcast,110,2013-02-21 23:55:00
7:15 PM,14.7,11.1,86,30.24,3.0,ESE,8.1,-,N/A,Snow,Light Snow,110,2013-02-22 00:15:00
7:35 PM,14.9,11.3,86,30.25,10.0,ESE,5.8,-,N/A,,Overcast,110,2013-02-22 00:35:00
7:55 PM,15.4,11.7,85,30.25,10.0,East,5.8,-,N/A,,Overcast,100,2013-02-22 00:55:00
8:15 PM,15.8,12.2,86,30.25,10.0,East,4.6,-,N/A,,Overcast,100,2013-02-22 01:15:00
8:35 PM,16.9,13.1,85,30.27,10.0,ESE,3.5,-,N/A,,Overcast,110,2013-02-22 01:35:00
8:55 PM,16.9,13.1,85,30.27,10.0,Calm,Calm,-,N/A,,Overcast,0,2013-02-22 01:55:00
9:15 PM,17.1,13.1,84,30.28,10.0,East,3.5,-,N/A,,Overcast,100,2013-02-22 02:15:00
9:35 PM,17.1,13.1,84,30.29,10.0,Calm,Calm,-,N/A,,Overcast,0,2013-02-22 02:35:00
9:55 PM,17.1,13.1,84,30.30,10.0,Calm,Calm,-,N/A,,Overcast,0,2013-02-22 02:55:00
10:15 PM,17.1,13.1,84,30.32,10.0,Calm,Calm,-,N/A,,Overcast,0,2013-02-22 03:15:00
10:35 PM,17.1,13.1,84,30.34,10.0,Calm,Calm,-,N/A,,Overcast,0,2013-02-22 03:35:00
10:55 PM,17.1,13.1,84,30.35,10.0,Calm,Calm,-,N/A,,Overcast,0,2013-02-22 03:55:00
11:15 PM,17.1,13.1,84,30.35,10.0,Calm,Calm,-,N/A,,Overcast,0,2013-02-22 04:15:00
11:35 PM,17.1,13.1,84,30.37,10.0,Calm,Calm,-,N/A,,Overcast,0,2013-02-22 04:35:00
11:55 PM,17.1,13.3,85,30.39,10.0,Calm,Calm,-,N/A,,Overcast,0,2013-02-22 04:55:00